BAW658 EGLL-LGKF

Flight info

Callsign BAW658
Flight time N/A
Altitude 35000
Route DET2G DET L6 DVR UL9 KONAN UL607 REMBA DCT LIRSU DCT NONKO DCT VIBOM DCT NOMBO DCT RIDAR DCT RADIZ DCT RILIM DCT AIOSA DCT LATAN UM872 ASTUS ASTUS1P
Aircraft A320/M-SDE3FGIJ1KRWXY/SB1

Departure

Time 2026-05-04 09:34
Airport London Heathrow Airport (EGLL)

Arrival

Time N/A
Airport Kefallinia Airport (LGKF)
Time Latitude Longitude Altitude Speed Heading
2026-05-04 09:01 51.46928 -0.48650 87 ft 0 kts 360°
2026-05-04 09:18 51.46907 -0.48650 91 ft 4 kts
2026-05-04 09:19 51.46885 -0.48652 89 ft 2 kts 32°
2026-05-04 09:19 51.46876 -0.48665 88 ft 2 kts 81°
2026-05-04 09:19 51.46875 -0.48683 91 ft 2 kts 88°
2026-05-04 09:19 51.46875 -0.48690 91 ft 0 kts 89°
2026-05-04 09:21 51.46875 -0.48683 90 ft 2 kts 88°
2026-05-04 09:22 51.46876 -0.48653 89 ft 3 kts 88°
2026-05-04 09:22 51.46876 -0.48621 87 ft 3 kts 88°
2026-05-04 09:22 51.46877 -0.48596 87 ft 0 kts 88°
2026-05-04 09:22 51.46877 -0.48591 87 ft 3 kts 89°
2026-05-04 09:23 51.46877 -0.48537 87 ft 6 kts 89°
2026-05-04 09:23 51.46851 -0.48469 88 ft 9 kts 166°
2026-05-04 09:23 51.46788 -0.48472 87 ft 9 kts 181°
2026-05-04 09:23 51.46726 -0.48472 87 ft 10 kts 179°
2026-05-04 09:25 51.46655 -0.47412 86 ft 12 kts 90°
2026-05-04 09:25 51.46655 -0.47280 87 ft 12 kts 90°
2026-05-04 09:26 51.46655 -0.47146 87 ft 12 kts 90°
2026-05-04 09:26 51.46656 -0.47011 87 ft 12 kts 89°
2026-05-04 09:26 51.46656 -0.46871 90 ft 13 kts 90°
2026-05-04 09:26 51.46657 -0.46724 89 ft 14 kts 89°
2026-05-04 09:27 51.46658 -0.46563 88 ft 15 kts 89°
2026-05-04 09:27 51.46659 -0.46383 89 ft 17 kts 89°
2026-05-04 09:27 51.46660 -0.46226 89 ft 14 kts 89°
2026-05-04 09:27 51.46660 -0.46054 87 ft 16 kts 90°
2026-05-04 09:28 51.46662 -0.45866 86 ft 17 kts 89°
2026-05-04 09:28 51.46663 -0.45669 87 ft 17 kts 90°
2026-05-04 09:28 51.46663 -0.45466 87 ft 19 kts 90°
2026-05-04 09:28 51.46664 -0.45249 87 ft 20 kts 90°
2026-05-04 09:29 51.46664 -0.45032 87 ft 15 kts 90°
2026-05-04 09:29 51.46662 -0.44850 87 ft 17 kts 90°
2026-05-04 09:29 51.46663 -0.44650 87 ft 19 kts 88°
2026-05-04 09:29 51.46665 -0.44445 87 ft 18 kts 89°
2026-05-04 09:30 51.46666 -0.44233 87 ft 18 kts 89°
2026-05-04 09:30 51.46662 -0.44088 87 ft 10 kts 112°
2026-05-04 09:30 51.46612 -0.44057 86 ft 4 kts 182°
2026-05-04 09:30 51.46576 -0.44059 86 ft 6 kts 182°
2026-05-04 09:31 51.46526 -0.44061 86 ft 8 kts 185°
2026-05-04 09:31 51.46492 -0.44128 87 ft 9 kts 266°
2026-05-04 09:31 51.46492 -0.44192 86 ft 8 kts 268°
2026-05-04 09:31 51.46490 -0.44494 88 ft 59 kts 270°
2026-05-04 09:32 51.46491 -0.45494 86 ft 117 kts 270°
2026-05-04 09:32 51.46482 -0.47053 87 ft 161 kts 270°
2026-05-04 09:34 51.41227 -0.51502 3045 ft 242 kts 135°
2026-05-04 09:34 51.39996 -0.49522 3543 ft 257 kts 129°
2026-05-04 09:34 51.39215 -0.46948 4278 ft 262 kts 102°
2026-05-04 09:34 51.38931 -0.44039 5066 ft 267 kts 97°
2026-05-04 09:35 51.38724 -0.41064 5848 ft 270 kts 96°
2026-05-04 09:35 51.38530 -0.38051 6612 ft 274 kts 96°
2026-05-04 09:35 51.38347 -0.35057 7313 ft 278 kts 96°
2026-05-04 09:35 51.38167 -0.31945 8023 ft 283 kts 96°
2026-05-04 09:37 51.36803 -0.07532 11301 ft 356 kts 96°
2026-05-04 09:37 51.36651 -0.04856 11697 ft 359 kts 96°
2026-05-04 09:38 51.36423 -0.00861 12295 ft 362 kts 97°
2026-05-04 09:38 51.36024 0.03124 12910 ft 365 kts 101°
2026-05-04 09:38 51.35624 0.07146 13533 ft 368 kts 100°
2026-05-04 09:38 51.35262 0.11222 14096 ft 372 kts 99°
2026-05-04 09:39 51.34915 0.15332 14637 ft 374 kts 99°
2026-05-04 09:39 51.34563 0.19479 15153 ft 377 kts 99°
2026-05-04 09:39 51.34201 0.23642 15660 ft 380 kts 99°
2026-05-04 09:39 51.33828 0.27835 16147 ft 382 kts 99°
2026-05-04 09:40 51.33443 0.32062 16639 ft 385 kts 100°
2026-05-04 09:40 51.33047 0.36316 17143 ft 388 kts 100°
2026-05-04 09:40 51.32645 0.40595 17661 ft 391 kts 100°
2026-05-04 09:40 51.32237 0.44900 18170 ft 394 kts 100°
2026-05-04 09:41 51.31827 0.49241 18629 ft 396 kts 100°
2026-05-04 09:42 51.28855 0.80487 21680 ft 416 kts 101°
2026-05-04 09:43 51.28413 0.85059 22076 ft 418 kts 101°
2026-05-04 09:43 51.27962 0.89729 22469 ft 421 kts 101°
2026-05-04 09:43 51.27512 0.94364 22860 ft 424 kts 101°
2026-05-04 09:43 51.27055 0.99024 23249 ft 426 kts 101°
2026-05-04 09:44 51.26591 1.03718 23625 ft 429 kts 101°
2026-05-04 09:44 51.26122 1.08435 23938 ft 431 kts 102°
2026-05-04 09:44 51.25647 1.13177 24256 ft 434 kts 102°
2026-05-04 09:46 51.22224 1.47000 26407 ft 448 kts 103°
2026-05-04 09:46 51.21715 1.51926 26726 ft 450 kts 103°
2026-05-04 09:46 51.21208 1.56851 27038 ft 452 kts 103°
2026-05-04 09:47 51.20696 1.61817 27355 ft 454 kts 103°
2026-05-04 09:47 51.20185 1.66769 27819 ft 452 kts 103°
2026-05-04 09:49 51.16564 2.00978 30843 ft 443 kts 105°
2026-05-04 09:49 51.16047 2.05807 31209 ft 443 kts 105°
2026-05-04 09:49 51.15527 2.10640 31572 ft 442 kts 105°
2026-05-04 09:51 51.12348 2.39559 33714 ft 440 kts 106°
2026-05-04 09:51 51.11815 2.44353 34040 ft 440 kts 106°
2026-05-04 09:51 51.11282 2.49136 34324 ft 439 kts 106°
2026-05-04 09:51 51.10744 2.53922 34574 ft 439 kts 106°
2026-05-04 09:52 51.10202 2.58713 34827 ft 439 kts 106°
2026-05-04 09:52 51.09663 2.63491 34985 ft 440 kts 106°
2026-05-04 09:52 51.08940 2.68224 35026 ft 441 kts 111°
2026-05-04 09:53 51.07221 2.77733 35024 ft 452 kts 111°
2026-05-04 09:53 51.05455 2.87374 35025 ft 455 kts 111°
2026-05-04 09:54 51.03685 2.97044 35021 ft 456 kts 112°
2026-05-04 09:54 51.01906 3.06727 35015 ft 457 kts 112°
2026-05-04 09:55 51.00122 3.16409 35006 ft 457 kts 112°
2026-05-04 09:55 50.98327 3.26098 34996 ft 457 kts 112°
2026-05-04 09:56 50.96521 3.35780 34989 ft 458 kts 112°
2026-05-04 09:56 50.94705 3.45462 34987 ft 458 kts 112°
2026-05-04 09:57 50.92884 3.55160 34999 ft 459 kts 112°
2026-05-04 09:57 50.91050 3.64844 34991 ft 459 kts 112°
2026-05-04 09:58 50.89191 3.74532 34988 ft 460 kts 113°
2026-05-04 09:58 50.87314 3.84210 34982 ft 460 kts 113°
2026-05-04 10:00 50.79721 4.22993 35001 ft 462 kts 113°
2026-05-04 10:04 50.66266 4.91002 35004 ft 463 kts 117°
2026-05-04 10:04 50.63608 5.00142 35009 ft 459 kts 121°
2026-05-04 10:05 50.60869 5.09223 35013 ft 459 kts 121°
2026-05-04 10:05 50.58127 5.18304 35017 ft 460 kts 121°
2026-05-04 10:06 50.55360 5.27437 35022 ft 460 kts 121°
2026-05-04 10:06 50.52598 5.36510 35025 ft 460 kts 121°
2026-05-04 10:08 50.42877 5.68179 35013 ft 460 kts 121°
2026-05-04 10:08 50.40558 5.75685 35005 ft 460 kts 121°